Weather History for Hot Springs, VA

Change the Weather History Date:

Wednesday, January 18, 2012

  Actual Average Record
Temperature  
Mean Temperature 26 °F -  
Max Temperature 37 °F 29 °F 50 °F (2006)
Min Temperature 15 °F 16 °F -7 °F (1997)
Degree Days  
Heating Degree Days 39    
Moisture  
Dew Point 17 °F    
Average Humidity 79    
Maximum Humidity 93    
Minimum Humidity 68    
Precipitation  
Precipitation 0.00 in - - ()
Sea Level Pressure  
Sea Level Pressure 29.94 in    
Wind  
Wind Speed 17 mph (WNW)    
Max Wind Speed 31 mph    
Max Gust Speed 44 mph    
Visibility 10 miles    
Events Snow    
Averages and records for this station are not official NWS values.
T = Trace of Precipitation, MM = Missing Value Source: NWS Daily Summary

Daily Weather History Graph

Daily Weather History Graph

Search for Another Location

Airport:

Trip Planner

Search our weather history database for the weather conditions in past years. The results will help you decide how hot, cold, wet, or windy it might be!

Date:

Astronomy

Jan. 18, 2012 Rise Set
Actual Time 7:33 AM EST 5:26 PM EST
Civil Twilight 7:04 AM EST 5:55 PM EST
Nautical Twilight 6:32 AM EST 6:27 PM EST
Astronomical Twilight 6:00 AM EST 6:58 PM EST
Moon 3:00 AM EST (1/18) 1:04 PM EST (1/18)
Length of Visible Light 10h 50m
Length of Day
9h 53m
Waning Crescent, 25% of the Moon is Illuminated
Jan 18
Waning Crescent
Jan 23
New
Jan 30
First Quarter
Feb 7
Full
Feb 14
Last Quarter

Hourly Weather History & Observations

Time (EST) Temp. Windchill Dew Point Humidity Pressure Visibility Wind Dir Wind Speed Gust Speed Precip Events Conditions
12:15 AM 37.4 °F 27.5 °F 32.0 °F 81% 29.85 in 10.0 mi West 18.4 mph 26.5 mph N/A   Scattered Clouds
12:35 AM 37.4 °F 27.5 °F 30.2 °F 75% 29.85 in 10.0 mi WNW 18.4 mph 29.9 mph N/A   Mostly Cloudy
12:57 AM 35.6 °F 24.5 °F 30.2 °F 81% 29.84 in 10.0 mi West 20.7 mph 33.4 mph N/A   Overcast
1:15 AM 35.6 °F 23.0 °F 28.4 °F 75% 29.85 in 10.0 mi West 27.6 mph 33.4 mph N/A   Overcast
1:35 AM 33.8 °F 20.5 °F 26.6 °F 75% 29.85 in 10.0 mi West 27.6 mph 38.0 mph N/A   Mostly Cloudy
1:55 AM 33.8 °F 20.8 °F 28.4 °F 81% 29.85 in 10.0 mi West 26.5 mph 32.2 mph N/A   Mostly Cloudy
2:17 AM 32.0 °F 19.5 °F 28.4 °F 87% 29.85 in 10.0 mi West 21.9 mph 34.5 mph N/A   Overcast
2:35 AM 32.0 °F 19.5 °F 28.4 °F 87% 29.85 in 10.0 mi West 21.9 mph 32.2 mph N/A   Overcast
2:55 AM 30.2 °F 16.5 °F 28.4 °F 93% 29.86 in 10.0 mi WNW 24.2 mph 31.1 mph N/A   Overcast
3:15 AM 28.4 °F 13.5 °F 26.6 °F 93% 29.86 in 7.0 mi West 26.5 mph 34.5 mph N/A   Overcast
3:35 AM 28.4 °F 13.8 °F 24.8 °F 86% 29.85 in 10.0 mi West 25.3 mph 39.1 mph N/A   Overcast
3:55 AM 26.6 °F 10.0 °F 21.2 °F 80% 29.85 in 10.0 mi WNW 31.1 mph 39.1 mph N/A   Overcast
4:15 AM 26.6 °F 10.6 °F 21.2 °F 80% 29.85 in 10.0 mi West 28.8 mph 38.0 mph N/A   Overcast
4:35 AM 24.8 °F 10.3 °F 19.4 °F 80% 29.85 in 10.0 mi WNW 20.7 mph 34.5 mph N/A   Overcast
4:57 AM 24.8 °F 9.0 °F 19.4 °F 80% 29.85 in 10.0 mi West 25.3 mph 38.0 mph N/A   Overcast
5:15 AM 24.8 °F 8.7 °F 17.6 °F 74% 29.86 in 10.0 mi West 26.5 mph 43.7 mph N/A   Overcast
5:35 AM 24.8 °F 11.1 °F 19.4 °F 80% 29.88 in 10.0 mi WNW 18.4 mph 31.1 mph N/A   Overcast
5:55 AM 24.8 °F 11.1 °F 17.6 °F 74% 29.88 in 10.0 mi WNW 18.4 mph 38.0 mph N/A   Overcast
6:17 AM 23.0 °F 9.2 °F 17.6 °F 80% 29.89 in 10.0 mi West 17.3 mph 31.1 mph N/A   Overcast
6:35 AM 23.0 °F 9.2 °F 17.6 °F 80% 29.90 in 10.0 mi West 17.3 mph 31.1 mph N/A   Overcast
6:55 AM 23.0 °F 11.1 °F 17.6 °F 80% 29.91 in 10.0 mi West 12.7 mph 24.2 mph N/A   Overcast
7:37 AM 21.2 °F 6.4 °F 17.6 °F 86% 29.93 in 10.0 mi West 18.4 mph 29.9 mph N/A   Overcast
7:55 AM 21.2 °F 7.8 °F 17.6 °F 86% 29.93 in 10.0 mi WNW 15.0 mph 29.9 mph N/A   Overcast
8:15 AM 21.2 °F 8.3 °F 17.6 °F 86% 29.95 in 10.0 mi WNW 13.8 mph 23.0 mph N/A   Overcast
8:35 AM 21.2 °F 8.9 °F 17.6 °F 86% 29.96 in 10.0 mi WNW 12.7 mph 23.0 mph N/A Snow Light Snow
8:55 AM 21.2 °F 6.0 °F 17.6 °F 86% 29.97 in 10.0 mi WNW 19.6 mph 27.6 mph N/A   Overcast
9:15 AM 21.2 °F 6.8 °F 15.8 °F 80% 29.98 in 10.0 mi West 17.3 mph 26.5 mph N/A Snow Light Snow
9:37 AM 21.2 °F 8.9 °F 17.6 °F 86% 30.00 in 10.0 mi WNW 12.7 mph 23.0 mph N/A Snow Light Snow
10:15 AM 21.2 °F 9.5 °F 15.8 °F 80% 30.01 in 10.0 mi WNW 11.5 mph 20.7 mph N/A   Overcast
10:35 AM 21.2 °F 9.5 °F 15.8 °F 80% 30.01 in 10.0 mi NW 11.5 mph 20.7 mph N/A   Overcast
10:55 AM 21.2 °F 8.3 °F 15.8 °F 80% 30.02 in 10.0 mi West 13.8 mph - N/A Snow Light Snow
11:15 AM 21.2 °F 9.5 °F 15.8 °F 80% 30.02 in 10.0 mi WNW 11.5 mph 18.4 mph N/A   Overcast
11:35 AM 21.2 °F 9.5 °F 15.8 °F 80% 30.02 in 10.0 mi WNW 11.5 mph 18.4 mph N/A   Overcast
11:55 AM 21.2 °F 11.7 °F 15.8 °F 80% - 10.0 mi WNW 8.1 mph 16.1 mph N/A   Overcast
12:35 PM 21.2 °F 11.7 °F 15.8 °F 80% 29.99 in 10.0 mi NW 8.1 mph - N/A   Overcast
12:57 PM 21.2 °F 12.6 °F 15.8 °F 80% 29.99 in 10.0 mi NW 6.9 mph - N/A   Overcast
1:15 PM 21.2 °F 12.6 °F 15.8 °F 80% 29.98 in 10.0 mi WNW 6.9 mph - N/A   Overcast
1:36 PM 21.2 °F 12.6 °F 15.8 °F 80% 29.98 in 10.0 mi WNW 6.9 mph - N/A   Overcast
2:16 PM 21.2 °F 10.1 °F 15.8 °F 80% 29.98 in 10.0 mi NW 10.4 mph 17.3 mph N/A   Overcast
2:36 PM 23.0 °F 14.7 °F 15.8 °F 74% 29.98 in 10.0 mi WNW 6.9 mph 16.1 mph N/A   Overcast
3:16 PM 23.0 °F 13.1 °F 15.8 °F 74% 29.98 in 10.0 mi NW 9.2 mph - N/A   Overcast
3:36 PM 23.0 °F 14.7 °F 14.0 °F 68% 29.97 in 10.0 mi WNW 6.9 mph - N/A   Mostly Cloudy
3:56 PM 21.2 °F 9.5 °F 14.0 °F 74% 29.97 in 10.0 mi NW 11.5 mph 16.1 mph N/A   Mostly Cloudy
4:16 PM 21.2 °F 10.1 °F 14.0 °F 74% 29.97 in 10.0 mi WNW 10.4 mph - N/A   Scattered Clouds
4:36 PM 21.2 °F 10.1 °F 14.0 °F 74% 29.98 in 10.0 mi WNW 10.4 mph - N/A   Clear
4:57 PM 21.2 °F 11.7 °F 12.2 °F 68% 29.98 in 10.0 mi WNW 8.1 mph - N/A   Clear
5:16 PM 19.4 °F 7.9 °F 12.2 °F 74% 29.99 in 10.0 mi WNW 10.4 mph - N/A   Clear
5:36 PM 19.4 °F 7.2 °F 12.2 °F 74% 30.00 in 10.0 mi NW 11.5 mph 18.4 mph N/A   Scattered Clouds
5:56 PM 19.4 °F 7.9 °F 12.2 °F 74% 29.99 in 10.0 mi NW 10.4 mph - N/A   Scattered Clouds
6:16 PM 19.4 °F 7.9 °F 12.2 °F 74% 29.99 in 10.0 mi NW 10.4 mph - N/A   Clear
6:56 PM 17.6 °F 6.4 °F 10.4 °F 73% 29.99 in 10.0 mi NW 9.2 mph - N/A   Clear
7:16 PM 17.6 °F 5.7 °F 10.4 °F 73% 29.99 in 10.0 mi NW 10.4 mph - N/A   Clear
7:36 PM 17.6 °F 6.4 °F 10.4 °F 73% 29.99 in 10.0 mi NW 9.2 mph - N/A   Clear
7:56 PM 17.6 °F 7.3 °F 10.4 °F 73% 29.99 in 10.0 mi NW 8.1 mph - N/A   Clear
8:16 PM 15.8 °F 7.2 °F 10.4 °F 79% 30.00 in 10.0 mi WNW 5.8 mph - N/A   Clear
8:36 PM 15.8 °F 5.1 °F 10.4 °F 79% 30.01 in 10.0 mi WNW 8.1 mph - N/A   Clear
8:55 PM 15.8 °F 3.4 °F 10.4 °F 79% 30.00 in - West 10.4 mph - N/A   Clear
9:15 PM 15.8 °F 6.1 °F 10.4 °F 79% 30.00 in - WNW 6.9 mph - N/A   Clear
9:35 PM 15.8 °F 4.2 °F 10.4 °F 79% - 10.0 mi West 9.2 mph - N/A   Clear
9:55 PM 15.8 °F 5.1 °F 10.4 °F 79% 30.00 in 10.0 mi West 8.1 mph - N/A   Clear
10:17 PM 15.8 °F 4.2 °F 10.4 °F 79% 30.00 in 10.0 mi WNW 9.2 mph - N/A   Clear
10:35 PM 15.8 °F 5.1 °F 10.4 °F 79% 30.00 in 10.0 mi West 8.1 mph - N/A   Clear
10:55 PM 15.8 °F 6.1 °F 10.4 °F 79% 29.99 in 10.0 mi West 6.9 mph - N/A   Clear
11:15 PM 15.8 °F 7.2 °F 10.4 °F 79% 29.99 in 10.0 mi West 5.8 mph - N/A   Clear
11:35 PM 14.0 °F 8.2 °F 8.6 °F 79% 29.98 in 10.0 mi SW 3.5 mph - N/A   Clear
11:55 PM 14.0 °F 8.2 °F 8.6 °F 79% 29.99 in 10.0 mi SW 3.5 mph - N/A   Clear